{"data":{"norad_id":66403,"intl_designator":"2025-257Z","name":"STARLINK-35602","alt_names":[],"object_type":"PAYLOAD","status":"ACTIVE","operator":null,"country":"US","launch_date":"2025-11-09","launch_site_code":"AFETR","launch_vehicle":null,"mission":null,"orbit_class":"UNKNOWN","rcs_meters":null,"size_class":null,"mass_kg":null,"dimensions":null,"purposes":["comms"],"wikipedia_slug":null,"has_3d_model":false,"image_url":null,"decayed_at":null,"tle_current":{"epoch":"2026-09-20T20:08:43.906848Z","epoch_age_seconds":63462,"freshness":"FRESH","line1":"1 66403U 25257Z   26263.83939707  .00020387  00000+0  61278-3 0  9991","line2":"2 66403  53.1582  26.1824 0001099  78.3125 281.8001 15.34405324 49670","mean_motion":15.34405324,"eccentricity":0.0001099,"inclination_deg":53.1582,"raan_deg":26.1824,"arg_perigee_deg":78.3125,"mean_anomaly_deg":281.8001,"bstar":0.00061278,"rev_number":4967,"period_min":93.847432453252,"perigee_km":461.93560959954,"apogee_km":463.43922280622,"semimajor_km":6840.8244162029,"source":"CELESTRAK","updated_at":"2026-09-21T09:00:35.904255Z"}}}